This demonstration page uses our WeatherBlox Daily Observations layout. Learn more.

Hourly Observations for July 20, 2018

Temp ( °F °C ) Dew Point ( °F °C ) Humidity (%) Winds ( mph kmh ) Pressure ( in mb ) Visibility ( mi km ) Precip ( " mm )
12:15 am 00:15 Clear 71 21.9 70 21.1 95 95 S 3 6 29.85 1011 10 16.0934 0 0
12:35 am 00:35 Clear 72 22.1 70 21.1 94 94 Calm 29.85 1011 10 16.0934 0 0
12:55 am 00:55 Clear 71 21.5 70 21 97 97 Calm 29.85 1011 10 16.0934 0 0
1:15 am 01:15 Clear 71 21.7 69 20.7 94 94 Calm 29.85 1011 10 16.0934 0 0
1:35 am 01:35 Clear 71 21.8 70 21 95 95 S 3 6 29.85 1011 10 16.0934 0 0
1:55 am 01:55 Clear 68 20.1 67 19.6 97 97 Calm 29.85 1011 10 16.0934 0 0
2:15 am 02:15 Clear 68 20.2 68 19.9 98 98 Calm 29.85 1011 10 16.0934 0 0
2:35 am 02:35 Clear 68 20.1 67 19.6 97 97 Calm 29.85 1011 10 16.0934 0 0
2:55 am 02:55 Clear 68 19.8 67 19.6 99 99 Calm 29.85 1011 10 16.0934 0 0
3:15 am 03:15 Clear 67 19.3 67 19.3 100 100 NNE 3 6 29.85 1011 7 11.26538 0 0
3:35 am 03:35 Clear 66 19 66 19 100 100 NNE 3 6 29.85 1011 7 11.26538 0 0
3:55 am 03:55 Clear 66 19 66 19 100 100 NNE 5 7 29.85 1011 7 11.26538 0 0
4:15 am 04:15 Clear 67 19.3 67 19.3 100 100 Calm 29.85 1011 7 11.26538 0 0
4:35 am 04:35 Clear 67 19.2 67 19.2 100 100 Calm 29.85 1011 7 11.26538 0 0
4:55 am 04:55 Clear 65 18.6 65 18.6 100 100 Calm 29.88 1012 7 11.26538 0 0
5:15 am 05:15 Clear 66 19 65 18.6 98 98 Calm 29.85 1011 7 11.26538 0 0
5:35 am 05:35 Clear 66 18.8 66 18.7 99 99 Calm 29.88 1012 7 11.26538 0 0
5:55 am 05:55 Clear 66 18.7 65 18.3 98 98 E 5 7 29.88 1012 10 16.0934 0 0
6:15 am 06:15 Clear 67 19.3 66 19.1 99 99 ESE 3 6 29.85 1011 10 16.0934 0 0
6:35 am 06:35 Sunny 68 20 66 19 94 94 ESE 3 6 29.85 1011 10 16.0934 0 0
6:55 am 06:55 Sunny 67 19.7 67 19.2 97 97 ENE 6 9 29.85 1011 7 11.26538 0 0
7:15 am 07:15 Sunny 68 20 67 19.3 96 96 E 6 9 29.85 1011 10 16.0934 0 0
7:35 am 07:35 Sunny 68 20.2 67 19.5 96 96 E 7 11 29.85 1011 10 16.0934 0 0
7:55 am 07:55 Sunny 69 20.8 67 19.7 93 93 E 6 9 29.85 1011 10 16.0934 0 0
8:15 am 08:15 Sunny 71 21.4 68 20 92 92 E 7 11 29.88 1012 10 16.0934 0 0
8:35 am 08:35 Sunny 71 21.7 68 20 90 90 E 5 7 29.88 1012 10 16.0934 0 0
8:55 am 08:55 Sunny 72 22 68 20.1 89 89 ESE 5 7 29.88 1012 10 16.0934 0 0
9:15 am 09:15 Sunny 73 22.5 68 19.9 85 85 E 7 11 29.88 1012 10 16.0934 0 0
9:35 am 09:35 Sunny 73 22.8 67 19.6 82 82 ESE 6 9 29.85 1011 10 16.0934 0 0
9:55 am 09:55 Sunny 73 23 67 19.3 80 80 ESE 7 11 29.85 1011 10 16.0934 0 0
10:15 am 10:15 Sunny with Nearby Thunderstorms 74 23.6 68 20 80 80 ESE 5 7 29.85 1011 10 16.0934 0 0
10:35 am 10:35 Partly Cloudy with Thunderstorms 75 24.1 69 20.4 80 80 ENE 6 9 29.85 1011 10 16.0934 0 0
10:55 am 10:55 Cloudy with Thunderstorms 75 24.1 69 20.5 80 80 ENE 3 6 29.85 1011 10 16.0934 0 0
11:15 am 11:15 Mostly Cloudy 76 24.5 69 20.6 79 79 NE 7 11 29.88 1012 10 16.0934 0 0
11:35 am 11:35 Partly Cloudy 78 25.3 69 20.8 76 76 ENE 9 15 29.88 1012 10 16.0934 0 0
11:55 am 11:55 Sunny 78 25.8 70 21 75 75 E 8 13 29.88 1012 10 16.0934 0 0
12:15 pm 12:15 Mostly Cloudy 79 26.3 71 21.5 75 75 E 7 11 29.88 1012 10 16.0934 0 0
12:35 pm 12:35 Mostly Cloudy 80 26.4 70 21.3 74 74 ESE 6 9 29.88 1012 10 16.0934 0 0
12:55 pm 12:55 Cloudy 81 27 71 21.6 72 72 ESE 5 7 29.85 1011 10 16.0934 0 0
1:15 pm 13:15 Cloudy 81 27.3 71 21.4 70 70 ESE 7 11 29.85 1011 10 16.0934 0 0
1:35 pm 13:35 Partly Cloudy 82 28 70 21.2 67 67 E 5 7 29.85 1011 10 16.0934 0 0
1:55 pm 13:55 Sunny 82 27.9 72 22.1 71 71 ENE 7 11 29.85 1011 10 16.0934 0 0
2:15 pm 14:15 Partly Cloudy 82 27.8 72 22 71 71 NE 13 20 29.85 1011 10 16.0934 0 0
2:35 pm 14:35 Mostly Cloudy 83 28.1 72 22.1 70 70 NE 13 20 29.85 1011 10 16.0934 0 0
2:55 pm 14:55 Partly Cloudy 82 27.8 72 22.3 72 72 NE 13 20 29.85 1011 10 16.0934 0 0
3:15 pm 15:15 Sunny 81 27.3 71 21.9 72 72 ENE 13 20 29.85 1011 10 16.0934 0 0
3:35 pm 15:35 Sunny 80 26.8 71 21.5 73 73 ENE 10 17 29.85 1011 10 16.0934 0 0
3:55 pm 15:55 Sunny 82 27.5 71 21.9 72 72 ESE 8 13 29.85 1011 10 16.0934 0 0
4:15 pm 16:15 Sunny 82 27.7 71 21.5 69 69 SE 6 9 29.83 1010 10 16.0934 0 0
4:35 pm 16:35 Sunny 83 28.1 71 21.8 69 69 ESE 7 11 29.83 1010 10 16.0934 0 0
4:55 pm 16:55 Sunny 84 28.8 71 21.4 64 64 SE 7 11 29.83 1010 10 16.0934 0 0
5:15 pm 17:15 Sunny 85 29.3 70 20.9 61 61 SSE 7 11 29.83 1010 10 16.0934 0 0
5:35 pm 17:35 Sunny 85 29.4 71 21.9 64 64 SE 5 7 29.83 1010 10 16.0934 0 0
5:55 pm 17:55 Sunny 85 29.4 72 22.2 65 65 E 6 9 29.85 1011 10 16.0934 0 0
6:15 pm 18:15 Sunny 85 29.3 72 22.4 66 66 ENE 7 11 29.85 1011 10 16.0934 0 0
6:35 pm 18:35 Sunny 84 28.8 71 21.9 66 66 ENE 8 13 29.85 1011 10 16.0934 0 0
6:55 pm 18:55 Sunny 83 28.5 72 22 68 68 NE 7 11 29.85 1011 10 16.0934 0 0
7:15 pm 19:15 Sunny 82 28 72 22.1 70 70 ENE 8 13 29.85 1011 10 16.0934 0 0
7:35 pm 19:35 Sunny 81 27.4 73 22.6 75 75 ENE 8 13 29.85 1011 10 16.0934 0 0
7:55 pm 19:55 Sunny 80 26.7 72 22.1 76 76 ENE 9 15 29.88 1012 10 16.0934 0 0
8:15 pm 20:15 Sunny 78 25.8 72 22 80 80 ENE 7 11 29.88 1012 10 16.0934 0 0
8:35 pm 20:35 Sunny 77 25 72 22.3 85 85 ENE 6 9 29.88 1012 10 16.0934 0 0
8:55 pm 20:55 Sunny 75 24 73 22.5 91 91 ENE 5 7 29.88 1012 10 16.0934 0 0
9:15 pm 21:15 Clear 74 23.6 73 22.5 94 94 ENE 6 9 29.88 1012 10 16.0934 0 0
9:35 pm 21:35 Clear 73 23 72 22.2 95 95 ENE 7 11 29.91 1013 10 16.0934 0 0
9:55 pm 21:55 Clear 73 23 72 22.3 96 96 E 7 11 29.94 1014 10 16.0934 0 0
10:15 pm 22:15 Clear 73 22.7 72 22 96 96 E 6 9 29.94 1014 10 16.0934 0 0
10:35 pm 22:35 Clear 73 22.5 72 22.1 98 98 E 5 7 29.94 1014 10 16.0934 0 0
10:55 pm 22:55 Clear 72 22.2 72 22 99 99 E 6 9 29.97 1015 10 16.0934 0 0
11:15 pm 23:15 Clear 71 21.7 71 21.6 99 99 E 3 6 29.97 1015 10 16.0934 0 0
11:35 pm 23:35 Clear 71 21.5 70 21.3 99 99 E 6 9 29.97 1015 10 16.0934 0 0
11:55 pm 23:55 Clear 70 21 70 21 100 100 ESE 5 7 29.97 1015 7 11.26538 0 0

Powered by AerisWeather